Temp
-12 -12 -11 -13 -14 -13 -13 -13 -13 -13 -13 -12 -14 -13 -14 -14 -15 -14 -14 -13 -13 -14 -14 -14 -14 -14 -14 -14 -14 -14 -13 -13 -13 -13 -14 -14 -13 -13 -13 -13 -14 -13 -14 -14
-12 -11 -13 -14 -13 -12 -12 -13 -13 -13 -14 -12 -14 -13 -14 -14 -15 -14 -14 -14 -13 -14 -14 -14 -15 -15 -15 -14 -14 -14 -14 -15 -15 -14 -13 -13 -12 -13 -14 -13 -14 -14 -14 -14
-12 -13 -13 -13 -12 -12 -12 -13 -14 -14 -14 -13 -12 -13 -14 -14 -14 -15 -14 -14 -14 -14 -15 -15 -15 -15 -15 -14 -14 -14 -14 -14 -14 -14 -15 -14 -14 -14 -14 -14 -15 -15 -15 -16
-12 -13 -13 -13 -13 -13 -12 -13 -14 -14 -12 -13 -13 -12 -14 -15 -15 -15 -14 -14 -14 -14 -15 -15 -15 -15 -14 -14 -14 -14 -14 -14 -14 -14 -15 -15 -14 -15 -15 -15 -16 -15 -15 -15
-12 -13 -13 -13 -13 -13 -12 -14 -14 -14 -13 -12 -13 -12 -13 -15 -14 -15 -14 -14 -14 -15 -15 -14 -15 -14 -14 -14 -14 -14 -14 -14 -14 -14 -14 -14 -14 -15 -15 -15 -15 -15 -15 -15
-12 -13 -13 -13 -14 -13 -13 -13 -14 -13 -13 -12 -13 -13 -12 -14 -13 -14 -14 -14 -14 -14 -14 -14 -14 -15 -14 -14 -14 -14 -14 -15 -14 -15 -14 -14 -15 -14 -15 -15 -15 -16 -15 -15
-12 -13 -13 -13 -13 -13 -13 -13 -13 -13 -13 -12 -14 -12 -12 -13 -13 -14 -14 -14 -14 -14 -14 -14 -15 -15 -15 -14 -14 -15 -15 -15 -15 -15 -14 -14 -14 -15 -15 -15 -15 -15 -15 -15
-13 -13 -13 -13 -13 -14 -13 -14 -14 -13 -14 -13 -13 -11 -13 -13 -13 -13 -14 -14 -14 -14 -14 -14 -14 -15 -15 -15 -14 -15 -15 -15 -15 -15 -15 -15 -15 -15 -15 -15 -16 -16 -15 -15
-13 -13 -14 -14 -14 -15 -14 -13 -14 -14 -14 -14 -12 -12 -12 -13 -13 -14 -14 -14 -14 -14 -14 -14 -14 -14 -14 -15 -15 -15 -15 -15 -15 -16 -15 -16 -16 -16 -16 -16 -16 -16 -16 -16
-14 -13 -14 -15 -14 -14 -14 -15 -15 -14 -14 -13 -12 -13 -13 -13 -13 -13 -14 -15 -14 -14 -15 -15 -15 -14 -14 -15 -15 -15 -15 -15 -15 -16 -16 -16 -16 -16 -16 -16 -16 -16 -16 -16
-14 -14 -14 -15 -14 -14 -14 -14 -14 -14 -14 -14 -12 -12 -14 -14 -13 -14 -14 -14 -14 -14 -14 -14 -14 -15 -15 -15 -15 -15 -16 -16 -16 -16 -16 -16 -16 -16 -16 -15 -16 -16 -16 -16
-15 -14 -13 -14 -15 -15 -15 -15 -15 -15 -14 -14 -13 -12 -14 -14 -15 -14 -14 -14 -15 -15 -14 -14 -15 -15 -15 -15 -15 -15 -16 -16 -15 -15 -15 -15 -15 -15 -16 -16 -17 -16 -16 -16
-14 -14 -13 -14 -14 -14 -14 -15 -14 -15 -15 -13 -14 -12 -14 -15 -15 -15 -15 -15 -15 -15 -15 -15 -15 -14 -15 -15 -15 -15 -15 -15 -16 -15 -15 -15 -15 -16 -15 -15 -15 -16 -15 -15
-16 -15 -14 -13 -14 -15 -14 -14 -15 -15 -14 -13 -12 -13 -13 -15 -15 -15 -15 -16 -16 -16 -15 -15 -15 -15 -15 -15 -15 -15 -15 -16 -16 -15 -15 -15 -16 -16 -15 -16 -14 -15 -16 -16
-18 -16 -16 -14 -14 -15 -15 -15 -16 -15 -14 -14 -13 -14 -14 -15 -15 -15 -15 -16 -16 -16 -16 -16 -16 -16 -15 -16 -16 -15 -15 -15 -15 -15 -15 -16 -16 -16 -16 -16 -16 -16 -16 -16
-18 -18 -17 -16 -16 -17 -17 -15 -15 -15 -15 -14 -14 -14 -15 -15 -15 -15 -15 -15 -16 -16 -16 -16 -16 -16 -16 -17 -16 -16 -15 -15 -15 -15 -15 -16 -16 -16 -16 -16 -16 -16 -17 -17
-18 -17 -17 -17 -17 -17 -17 -14 -15 -15 -16 -15 -14 -15 -15 -15 -16 -15 -15 -15 -15 -16 -16 -16 -16 -16 -16 -17 -17 -17 -16 -16 -15 -15 -15 -16 -16 -16 -16 -16 -17 -17 -17 -17
-19 -19 -18 -17 -18 -17 -16 -17 -16 -16 -16 -16 -15 -15 -15 -15 -16 -15 -15 -15 -15 -15 -16 -16 -16 -16 -17 -17 -17 -17 -17 -16 -16 -16 -15 -15 -16 -16 -16 -16 -16 -17 -17 -17
-20 -18 -18 -18 -18 -17 -16 -17 -17 -17 -16 -16 -15 -16 -16 -16 -15 -15 -15 -16 -15 -16 -16 -17 -17 -17 -16 -16 -16 -16 -17 -16 -16 -16 -16 -16 -16 -16 -16 -16 -16 -16 -16 -16
-20 -20 -20 -19 -20 -18 -17 -18 -17 -17 -16 -17 -17 -16 -16 -16 -16 -16 -16 -16 -16 -16 -17 -17 -17 -17 -16 -16 -16 -16 -16 -16 -16 -16 -16 -16 -16 -16 -16 -16 -16 -16 -17 -17
-20 -20 -20 -21 -21 -18 -17 -18 -18 -17 -15 -17 -17 -16 -16 -16 -16 -16 -16 -16 -16 -16 -16 -17 -17 -17 -16 -16 -16 -16 -16 -16 -16 -16 -16 -16 -16 -16 -16 -16 -16 -16 -17 -17
-20 -20 -20 -20 -20 -18 -18 -19 -18 -17 -16 -17 -18 -17 -16 -16 -16 -16 -16 -16 -16 -16 -17 -16 -17 -17 -17 -16 -16 -16 -16 -16 -16 -16 -16 -16 -16 -16 -16 -16 -16 -16 -16 -17
-20 -20 -21 -20 -20 -20 -19 -18 -17 -17 -18 -18 -18 -18 -17 -17 -17 -17 -17 -17 -16 -17 -17 -17 -16 -16 -16 -17 -17 -17 -17 -17 -16 -16 -16 -16 -16 -16 -16 -16 -16 -16 -17 -17
-21 -21 -21 -21 -20 -21 -20 -18 -19 -18 -18 -17 -17 -17 -17 -17 -17 -17 -17 -17 -17 -17 -18 -18 -18 -17 -17 -17 -17 -17 -17 -17 -16 -16 -16 -16 -17 -17 -17 -17 -17 -17 -17 -17
-21 -22 -21 -21 -20 -21 -20 -20 -19 -19 -20 -18 -18 -18 -17 -17 -17 -17 -17 -17 -17 -17 -17 -18 -18 -17 -17 -17 -18 -17 -17 -17 -17 -17 -17 -17 -17 -17 -17 -17 -17 -17 -18 -18
-22 -22 -22 -21 -21 -21 -20 -19 -19 -20 -20 -19 -18 -18 -18 -17 -17 -17 -17 -17 -17 -18 -17 -18 -18 -18 -18 -18 -18 -18 -18 -18 -18 -18 -18 -18 -18 -18 -18 -18 -18 -18 -18 -18
Height
5742 5743 5751 5749 5747 5747 5745 5746 5747 5746 5743 5740 5738 5737 5739 5735 5734 5735 5734 5730 5729 5726 5724 5722 5722 5721 5718 5717 5715 5712 5712 5714 5715 5715 5718 5722 5727 5730 5731 5733 5737 5739 5739 5739
5734 5738 5743 5741 5741 5742 5741 5740 5742 5742 5737 5734 5733 5732 5735 5733 5732 5731 5732 5729 5726 5726 5724 5723 5723 5721 5719 5717 5716 5715 5715 5715 5715 5717 5718 5719 5721 5723 5725 5727 5730 5733 5735 5737
5728 5735 5734 5734 5735 5737 5738 5737 5737 5736 5733 5731 5729 5729 5728 5731 5729 5728 5730 5729 5726 5726 5725 5723 5724 5723 5722 5720 5719 5718 5716 5717 5716 5716 5718 5720 5722 5721 5722 5725 5728 5731 5732 5734
5716 5725 5728 5727 5731 5732 5734 5732 5731 5730 5729 5727 5726 5726 5725 5725 5726 5726 5728 5729 5726 5725 5724 5724 5724 5723 5722 5722 5721 5720 5719 5718 5717 5716 5717 5719 5720 5719 5723 5725 5729 5730 5733 5733
5713 5720 5721 5719 5730 5723 5731 5724 5725 5724 5723 5724 5722 5721 5724 5720 5722 5723 5724 5726 5725 5724 5724 5723 5723 5723 5723 5723 5723 5723 5722 5720 5719 5719 5721 5721 5720 5720 5723 5726 5730 5732 5733 5732
5700 5708 5707 5713 5717 5715 5723 5720 5719 5718 5718 5719 5719 5716 5719 5717 5717 5720 5720 5723 5724 5723 5722 5721 5721 5723 5724 5723 5724 5724 5723 5722 5722 5722 5724 5724 5724 5725 5726 5728 5730 5731 5731 5733
5694 5699 5702 5704 5708 5712 5714 5715 5713 5712 5711 5715 5714 5710 5716 5712 5713 5717 5716 5719 5718 5720 5719 5719 5719 5720 5721 5722 5722 5723 5724 5724 5724 5724 5725 5726 5726 5725 5725 5726 5726 5728 5729 5731
5685 5691 5695 5701 5703 5707 5707 5708 5707 5707 5709 5712 5707 5706 5713 5710 5708 5712 5713 5715 5716 5717 5717 5717 5718 5718 5720 5720 5720 5722 5722 5723 5723 5723 5723 5723 5723 5722 5723 5723 5724 5726 5727 5728
5679 5681 5688 5690 5693 5697 5700 5697 5706 5701 5700 5701 5702 5703 5709 5707 5708 5710 5712 5712 5716 5714 5714 5716 5715 5716 5717 5718 5718 5718 5719 5719 5720 5720 5721 5720 5719 5721 5722 5722 5724 5724 5726 5725
5669 5672 5678 5682 5683 5685 5688 5694 5694 5693 5693 5694 5695 5698 5702 5703 5704 5705 5708 5710 5711 5713 5713 5713 5713 5713 5713 5714 5714 5715 5716 5715 5714 5715 5714 5714 5713 5714 5715 5717 5719 5719 5719 5720
5659 5662 5669 5670 5673 5677 5680 5682 5686 5689 5687 5686 5689 5691 5696 5698 5699 5699 5701 5704 5705 5707 5709 5710 5710 5710 5710 5709 5710 5711 5711 5712 5711 5710 5709 5708 5708 5709 5709 5711 5713 5713 5714 5714
5646 5651 5655 5663 5667 5669 5672 5675 5679 5678 5680 5683 5684 5686 5690 5693 5694 5694 5695 5698 5699 5702 5703 5705 5706 5706 5706 5706 5705 5706 5705 5705 5704 5702 5703 5703 5700 5700 5702 5705 5703 5706 5706 5705
5636 5643 5648 5655 5658 5656 5658 5663 5668 5671 5674 5672 5676 5680 5686 5686 5688 5690 5690 5692 5694 5695 5694 5698 5701 5701 5701 5701 5700 5701 5700 5700 5699 5696 5695 5697 5695 5693 5695 5693 5689 5692 5696 5694
5626 5633 5637 5642 5649 5651 5652 5656 5660 5665 5666 5667 5668 5674 5679 5681 5682 5685 5685 5686 5688 5691 5691 5691 5693 5696 5696 5695 5695 5695 5696 5694 5692 5692 5691 5690 5688 5689 5687 5686 5683 5686 5689 5686
5620 5623 5627 5633 5637 5641 5643 5646 5652 5655 5659 5658 5664 5665 5672 5672 5675 5678 5678 5678 5679 5681 5685 5687 5687 5687 5690 5689 5689 5688 5688 5687 5686 5686 5685 5684 5683 5682 5682 5682 5682 5682 5681 5680
5610 5613 5620 5624 5626 5632 5635 5638 5640 5645 5648 5649 5652 5655 5662 5665 5665 5667 5670 5671 5671 5673 5676 5679 5680 5681 5683 5682 5682 5681 5680 5679 5678 5678 5677 5677 5677 5677 5676 5675 5675 5675 5675 5674
5600 5603 5608 5612 5616 5619 5624 5635 5633 5633 5637 5642 5643 5648 5655 5656 5657 5659 5663 5664 5665 5666 5667 5671 5673 5674 5675 5674 5673 5672 5672 5672 5672 5671 5670 5670 5670 5668 5667 5666 5666 5667 5667 5665
5590 5593 5597 5602 5606 5609 5621 5621 5629 5629 5632 5634 5636 5639 5645 5648 5650 5650 5653 5657 5657 5660 5660 5662 5664 5665 5665 5666 5665 5664 5664 5663 5662 5661 5661 5661 5661 5660 5660 5659 5658 5657 5656 5654
5584 5586 5588 5591 5594 5600 5607 5608 5618 5620 5623 5627 5630 5634 5639 5641 5641 5643 5645 5648 5651 5652 5654 5654 5655 5656 5658 5657 5656 5656 5657 5656 5656 5654 5652 5651 5650 5650 5650 5649 5648 5647 5645 5644
5575 5578 5581 5582 5584 5587 5599 5603 5609 5605 5607 5619 5619 5622 5626 5628 5631 5635 5639 5639 5643 5645 5646 5646 5647 5648 5649 5650 5649 5649 5649 5648 5648 5646 5645 5644 5644 5642 5641 5639 5637 5635 5633 5631
5567 5568 5570 5572 5572 5579 5590 5593 5594 5599 5612 5605 5609 5613 5618 5621 5625 5630 5632 5631 5634 5635 5638 5638 5638 5638 5639 5639 5640 5640 5639 5639 5638 5637 5636 5634 5634 5632 5629 5627 5625 5623 5621 5618
5559 5562 5564 5563 5567 5576 5580 5587 5589 5592 5594 5597 5601 5605 5607 5608 5616 5616 5619 5621 5624 5627 5628 5628 5627 5628 5628 5629 5629 5630 5630 5629 5629 5628 5626 5625 5623 5621 5619 5617 5614 5611 5608 5606
5552 5554 5555 5558 5561 5565 5569 5578 5578 5578 5580 5586 5590 5593 5596 5600 5602 5605 5606 5611 5615 5617 5618 5618 5618 5618 5620 5620 5619 5619 5618 5617 5616 5615 5613 5611 5609 5607 5605 5603 5601 5598 5595 5592
5543 5545 5546 5547 5558 5557 5560 5566 5573 5566 5566 5572 5577 5583 5584 5587 5592 5595 5598 5602 5604 5605 5606 5608 5609 5609 5609 5609 5609 5609 5608 5607 5604 5602 5600 5599 5597 5595 5593 5590 5588 5585 5582 5579
5533 5534 5539 5539 5545 5550 5552 5556 5563 5559 5557 5562 5567 5570 5572 5577 5581 5585 5587 5591 5591 5593 5595 5596 5597 5598 5598 5599 5598 5597 5597 5595 5593 5591 5589 5587 5585 5583 5581 5578 5575 5572 5569 5566
5522 5526 5529 5533 5535 5538 5545 5547 5555 5554 5553 5557 5559 5560 5564 5568 5570 5573 5576 5579 5580 5583 5585 5586 5586 5586 5588 5587 5587 5586 5584 5583 5582 5580 5578 5575 5573 5570 5568 5566 5563 5559 5556 5552
Wind_Speed
32 32 14 15 19 24 26 23 21 20 21 25 24 26 12 12 7 5 10 10 7 11 9 1 7 5 4 7 8 9 6 6 12 11 15 18 20 21 20 18 22 26 23 23
36 30 22 23 26 24 24 26 21 20 26 26 27 20 14 9 7 7 9 8 6 7 7 4 5 4 3 5 5 9 10 13 13 10 9 6 15 23 24 22 23 24 22 22
36 28 29 30 28 23 22 22 24 27 29 27 25 18 24 13 8 4 10 7 5 4 5 4 2 4 5 4 2 3 6 7 8 9 10 10 12 15 14 14 13 16 18 19
41 31 29 33 27 26 21 21 23 29 30 27 23 22 20 19 12 4 8 3 5 3 5 5 5 8 7 8 6 4 4 4 5 7 7 7 8 13 15 15 17 19 20 18
37 28 29 36 19 31 18 25 24 28 31 26 19 22 14 27 15 8 7 9 6 9 6 8 9 7 6 6 7 7 6 5 5 7 7 7 8 9 9 9 10 13 14 13
40 33 38 34 30 34 23 25 27 28 31 25 14 25 8 26 18 12 12 11 10 10 9 9 10 8 5 5 6 7 7 5 6 8 10 10 8 9 11 13 14 13 14 14
36 36 34 35 35 30 29 26 28 32 31 22 17 28 9 21 19 15 11 15 23 15 9 9 13 11 8 5 4 6 5 5 5 7 8 8 8 9 12 13 13 11 12 15
38 36 33 30 28 27 29 28 30 31 32 29 27 25 14 20 20 13 13 12 14 12 9 7 11 12 10 9 6 6 5 5 5 7 10 11 12 12 12 12 10 11 13 15
39 38 31 32 31 31 31 35 26 34 37 35 30 28 21 23 22 18 14 19 13 14 10 8 7 10 11 10 11 12 12 10 8 9 10 13 14 14 15 14 13 16 19 22
38 37 30 30 35 38 37 32 33 36 38 36 29 25 24 27 25 21 14 15 18 16 15 9 8 9 11 13 16 16 14 14 15 14 15 16 18 20 19 19 22 23 22 28
40 42 37 34 38 39 38 39 36 35 39 40 30 26 19 29 27 19 17 16 17 15 17 18 12 12 14 16 14 16 17 18 19 22 24 25 26 26 27 25 25 28 29 34
49 47 47 37 36 38 38 38 37 39 41 39 38 26 22 24 32 27 24 17 19 18 14 16 15 15 15 16 20 18 20 23 25 29 25 27 37 32 27 21 35 30 35 41
51 50 48 44 43 45 45 44 42 41 39 40 40 29 24 23 30 28 24 25 22 20 17 17 16 17 19 20 21 20 18 18 23 25 28 28 28 22 18 27 26 34 29 27
53 52 51 52 46 45 45 44 43 41 40 41 38 32 28 26 26 29 27 27 28 23 21 21 17 14 16 19 19 18 18 21 23 24 26 23 18 21 21 20 17 27 25 20
43 49 51 53 50 44 46 44 43 42 40 44 39 37 29 31 27 31 32 28 30 29 26 26 23 19 19 21 25 27 28 27 27 27 25 22 22 20 21 20 21 22 24 25
47 45 48 51 48 41 43 49 46 44 45 44 45 43 36 32 31 30 37 33 35 33 32 28 27 20 25 24 26 30 29 29 30 30 25 23 22 23 23 24 26 28 29 31
49 50 43 44 45 45 46 45 50 50 47 45 47 45 37 37 36 35 31 34 37 37 39 37 35 34 29 26 31 33 36 37 35 26 22 23 25 24 26 27 29 30 34 34
62 51 45 43 48 43 44 42 41 47 48 47 47 46 40 38 35 39 40 37 37 36 37 36 37 33 29 29 33 32 29 24 27 29 27 27 27 27 27 30 32 34 35 34
59 59 55 58 45 32 46 49 42 42 40 46 47 44 41 38 41 42 36 34 37 36 34 34 28 32 31 27 30 30 27 25 27 29 31 31 30 31 32 32 33 36 36 37
31 41 58 63 62 50 28 40 38 43 46 38 45 51 46 46 43 42 38 36 31 31 32 32 31 37 36 27 29 30 29 30 28 28 28 31 34 34 35 37 37 38 38 38
27 36 42 48 53 58 39 24 28 47 42 41 44 46 47 46 43 37 38 45 43 38 36 37 36 39 38 33 31 32 33 33 34 34 34 35 37 38 39 39 41 43 40 45
31 32 37 43 50 56 53 48 26 35 45 47 46 47 44 52 48 47 46 44 40 39 40 41 40 38 35 36 37 40 39 39 39 40 41 42 42 41 41 41 42 43 46 48
36 36 37 40 41 43 53 53 33 38 33 39 42 45 50 48 46 48 53 43 37 40 41 42 43 42 39 38 42 41 39 41 43 43 44 46 46 45 45 44 46 47 48 51
41 40 40 40 35 37 42 54 48 28 30 35 30 30 34 46 51 48 48 44 44 45 44 42 43 43 44 40 40 40 38 37 39 40 41 43 45 47 48 49 49 50 51 53
45 43 41 39 37 38 26 31 49 24 18 25 30 39 45 40 42 41 41 46 45 45 43 45 44 43 44 41 37 36 40 43 44 43 42 43 46 47 49 50 51 52 53 55
45 41 38 37 33 34 36 30 46 24 23 19 33 41 39 35 34 38 43 45 50 49 48 50 47 50 48 46 43 44 45 46 46 46 47 46 47 49 51 52 53 55 57 58
Wind_Direction
258 257 263 257 250 255 267 278 276 276 281 285 286 274 269 261 252 259 289 309 359 4 16 230 204 211 281 312 313 13 36 176 208 195 196 201 205 216 211 217 222 226 230 230
249 255 249 246 255 265 272 281 279 258 268 275 278 281 273 244 216 291 299 286 330 349 7 26 199 202 227 295 344 54 62 94 106 122 122 165 212 215 214 220 223 230 224 224
248 246 241 248 253 265 273 280 271 264 265 275 285 285 271 247 226 256 287 264 282 276 314 4 143 179 214 214 178 102 90 85 96 110 117 116 123 129 138 159 173 173 178 172
245 241 243 253 256 266 265 276 264 260 267 270 284 287 261 260 248 169 251 262 295 256 239 232 259 219 211 197 197 179 146 118 101 107 129 146 151 146 158 161 174 179 189 180
249 244 250 250 254 254 254 255 251 252 262 266 286 283 245 254 232 218 229 255 286 266 266 230 239 241 215 202 197 198 181 182 172 173 173 168 161 150 156 171 189 201 202 192
239 228 231 242 235 248 242 250 254 259 265 262 275 271 265 253 250 200 189 231 236 265 266 242 238 256 254 239 214 225 226 218 213 200 208 200 195 199 193 195 199 202 204 206
245 237 236 238 240 247 257 257 256 259 268 267 255 263 262 254 244 219 202 233 229 237 255 231 211 225 259 267 218 220 233 246 265 275 268 261 244 233 223 217 216 222 225 224
240 236 240 241 249 252 254 256 257 265 266 261 248 254 239 251 241 234 197 212 203 217 241 234 227 217 237 258 241 246 237 270 289 296 291 286 276 268 250 234 232 235 242 244
236 240 233 235 235 235 242 246 257 259 261 252 243 248 243 249 249 245 225 222 231 203 208 216 220 232 230 242 253 258 265 259 264 263 274 271 265 261 249 242 246 254 248 240
230 232 231 229 232 231 231 240 242 248 256 254 248 246 251 250 251 245 240 223 219 210 205 219 221 251 255 246 244 255 268 276 271 273 268 263 260 257 250 240 240 244 256 259
231 232 227 224 229 233 235 235 241 247 250 251 246 240 250 250 247 238 245 212 203 216 232 247 234 237 248 255 264 256 255 261 268 265 265 269 265 264 264 264 251 252 254 259
233 232 233 227 227 232 232 237 239 244 250 256 260 240 240 245 252 251 250 249 251 244 247 232 248 251 256 263 262 261 255 254 264 268 273 275 277 272 252 276 260 258 264 263
239 237 238 231 226 229 229 233 235 238 245 247 251 243 228 241 246 254 256 261 258 257 239 225 240 263 264 270 268 261 266 265 269 278 291 287 280 297 275 291 278 252 261 280
235 236 237 237 226 229 232 233 233 241 245 252 249 253 243 236 250 254 252 252 254 245 238 258 256 244 255 259 255 248 264 271 275 280 285 283 293 294 300 309 281 257 264 286
230 234 237 238 238 224 227 230 236 240 247 252 252 249 249 251 248 247 256 254 250 255 249 254 257 259 260 258 257 259 265 275 282 285 282 281 281 286 290 296 290 287 287 283
220 231 236 236 240 237 233 230 230 235 237 243 249 243 244 245 256 251 245 242 252 257 260 248 245 257 265 261 265 265 263 270 283 282 278 280 283 285 286 290 292 288 286 285
230 222 221 232 238 244 239 239 238 234 235 241 245 248 246 248 254 250 252 255 250 250 258 254 260 268 271 263 276 281 275 271 274 268 274 274 277 284 290 288 286 282 281 283
232 242 234 230 234 243 242 249 245 250 249 238 242 248 247 247 252 253 252 253 258 255 257 265 268 272 269 268 264 267 266 263 266 272 274 275 279 283 284 283 283 280 279 282
237 235 246 244 238 236 234 241 242 250 252 249 248 253 256 248 249 251 251 257 255 269 269 263 268 273 275 260 257 256 257 259 264 271 276 281 284 285 283 282 279 279 277 276
241 241 242 249 251 244 216 229 243 236 244 247 245 248 250 243 244 245 252 251 250 258 260 267 270 276 282 263 254 254 258 262 265 268 273 279 281 280 280 281 282 279 277 278
255 251 249 248 255 241 231 244 254 244 247 247 248 254 245 241 245 252 252 253 251 251 256 265 272 276 279 267 258 257 262 267 273 273 274 277 278 279 281 282 283 284 279 281
257 260 259 259 253 252 248 245 252 242 246 254 257 255 252 249 245 249 250 245 250 257 256 265 273 276 276 274 276 276 271 271 272 272 273 278 280 280 280 281 283 284 284 284
261 258 258 260 266 258 254 246 246 212 233 252 256 255 250 248 256 247 249 250 252 256 262 265 267 273 278 279 279 276 277 281 280 279 282 283 284 285 284 284 283 284 284 284
260 259 260 259 256 259 251 251 250 228 211 224 233 256 255 249 249 248 250 257 258 257 254 258 262 266 269 272 274 276 282 285 284 284 284 285 285 284 283 282 281 281 282 283
255 254 255 259 251 239 240 238 241 246 267 237 249 254 252 251 245 245 249 246 251 252 247 250 256 262 266 270 267 270 276 279 281 281 281 282 282 282 282 281 281 282 282 284
246 248 254 253 254 245 238 237 236 256 273 270 255 255 252 255 249 246 246 254 248 250 251 259 253 259 262 270 275 275 277 278 280 278 278 277 278 279 280 281 282 284 285 286